sat.trackr.live / text

‹ back to catalog

STARLINK-6117

NORAD 56130 · 2023-046AQ

PAYLOAD ACTIVE UNKNOWN

§ Identity

Operator
Country
US
Launch date
2023-03-29
Launch site
AFETR
Launch vehicle
Mass (kg)
RCS (m²)

Purposes: comms

External: N2YO · Heavens-Above · Gunter

§ Orbital elements

Epoch: 2026-05-25T03:30:09.141696Z

Period
94.27 min
Inclination
43.0046°
Eccentricity
0.0001267
Mean motion
15.27576858 rev/d
Perigee alt
482.2 km
Apogee alt
483.9 km
Semi-major
6,861.2 km
B*
3.3413e-5
RAAN
75.1609°
Arg perigee
268.6038°
Mean anomaly
91.4669°
Rev number
17,389

§ Raw data

STARLINK-61171 56130U 23046AQ  26145.14593914  .00000657  00000+0  33413-4 0  99992 56130  43.0046  75.1609 0001267 268.6038  91.4669 15.27576858173898

JSON: /api/v1/satellites/56130 · /tle

For live sub-satellite position, see the globe view (requires WebGL).

§ Visibility from observer

Set your observer location to see the next 7 days of passes ≥ 10°. The values pass through the URL so the page stays shareable.

No JS? Fill the form by hand. The geolocation button needs JavaScript.